#�ϑ�����,���ϕ���,���ϕ���,�ő啗��,�ő啗����������,�ő�u�ԕ���,�ő�u�ԕ�����������
#(�N����),(m/s)   ,(16����),(m/s)   ,(16����)        ,(m/s)       ,(16����)            
2015/5/31 0:01,0.2,1,0.2,15,0.5,15
2015/5/31 0:02,0.3,1,0.3,1,0.9,1
2015/5/31 0:03,0.4,1,0.4,1,0.9,1
2015/5/31 0:04,0.4,1,0.4,1,0.9,1
2015/5/31 0:05,0.4,1,0.4,1,0.8,1
2015/5/31 0:06,0.5,1,0.5,1,0.8,16
2015/5/31 0:07,0.5,1,0.5,1,0.6,1
2015/5/31 0:08,0.4,1,0.5,1,0.4,1
2015/5/31 0:09,0.4,1,0.4,1,0.8,2
2015/5/31 0:10,0.5,1,0.5,1,0.6,16
2015/5/31 0:11,0.4,1,0.5,1,0.4,15
2015/5/31 0:12,0.4,1,0.4,1,0.5,1
2015/5/31 0:13,0.4,1,0.4,1,0.5,2
2015/5/31 0:14,0.3,1,0.4,1,0.6,1
2015/5/31 0:15,0.3,1,0.3,1,0.5,2
2015/5/31 0:16,0.2,1,0.3,1,0.1,2
2015/5/31 0:17,0.2,1,0.2,1,0.1,15
2015/5/31 0:18,0.2,2,0.2,1,0.1,3
2015/5/31 0:19,0.2,2,0.2,1,0.5,3
2015/5/31 0:20,0.2,2,0.2,1,0.5,3
2015/5/31 0:21,0.2,2,0.2,1,0.4,3
2015/5/31 0:22,0.2,2,0.2,1,0.5,3
2015/5/31 0:23,0.2,2,0.2,1,0.1,2
2015/5/31 0:24,0.1,2,0.2,1,0.3,15
2015/5/31 0:25,0.2,2,0.2,1,0.8,16
2015/5/31 0:26,0.2,2,0.2,1,0.8,16
2015/5/31 0:27,0.2,2,0.2,1,0.5,16
2015/5/31 0:28,0.3,2,0.3,2,0.6,16
2015/5/31 0:29,0.3,1,0.3,2,0.9,16
2015/5/31 0:30,0.3,1,0.3,2,0.9,1
2015/5/31 0:31,0.3,1,0.3,2,0.8,1
2015/5/31 0:32,0.3,1,0.3,2,0.4,2
2015/5/31 0:33,0.3,1,0.3,2,0.1,2
2015/5/31 0:34,0.3,1,0.3,2,0.8,15
2015/5/31 0:35,0.3,1,0.3,2,1.1,16
2015/5/31 0:36,0.3,1,0.3,2,1,16
2015/5/31 0:37,0.3,1,0.4,1,0.8,2
2015/5/31 0:38,0.3,1,0.4,1,0.8,1
2015/5/31 0:39,0.3,1,0.4,1,0.8,1
2015/5/31 0:40,0.3,1,0.3,1,0.6,16
2015/5/31 0:41,0.3,1,0.3,1,0.3,15
2015/5/31 0:42,0.3,1,0.3,1,0.6,1
2015/5/31 0:43,0.3,1,0.3,1,0.9,1
2015/5/31 0:44,0.4,1,0.4,1,0.9,1
2015/5/31 0:45,0.3,1,0.4,1,0.6,1
2015/5/31 0:46,0.3,1,0.3,1,0.6,16
2015/5/31 0:47,0.3,1,0.3,1,1.1,16
2015/5/31 0:48,0.3,1,0.3,1,0.9,16
2015/5/31 0:49,0.4,1,0.4,1,0.8,16
2015/5/31 0:50,0.4,1,0.4,1,1,2
2015/5/31 0:51,0.5,1,0.5,1,1,1
2015/5/31 0:52,0.5,1,0.5,1,1,16
2015/5/31 0:53,0.5,1,0.5,1,0.8,16
2015/5/31 0:54,0.5,1,0.5,1,1,16
2015/5/31 0:55,0.5,1,0.5,1,0.9,16
2015/5/31 0:56,0.6,16,0.6,1,0.9,16
2015/5/31 0:57,0.6,16,0.6,1,0.8,1
2015/5/31 0:58,0.6,1,0.6,1,0.8,16
2015/5/31 0:59,0.5,1,0.6,1,0.4,1
2015/5/31 1:00,0.5,1,0.5,1,0,1
2015/5/31 1:01,0.4,16,0.5,1,0.5,15
2015/5/31 1:02,0.3,16,0.4,1,0.3,13
2015/5/31 1:03,0.3,16,0.3,1,0.4,14
2015/5/31 1:04,0.3,16,0.3,1,0.8,15
2015/5/31 1:05,0.3,16,0.3,1,0.8,15
2015/5/31 1:06,0.2,16,0.3,16,0.8,15
2015/5/31 1:07,0.2,16,0.2,16,0.9,15
2015/5/31 1:08,0.3,16,0.3,16,0.8,16
2015/5/31 1:09,0.3,16,0.3,1,0.8,15
2015/5/31 1:10,0.4,15,0.4,1,1,16
2015/5/31 1:11,0.4,16,0.4,16,0.8,15
2015/5/31 1:12,0.5,16,0.5,16,1,16
2015/5/31 1:13,0.5,16,0.5,16,1.1,16
2015/5/31 1:14,0.5,16,0.5,16,1,16
2015/5/31 1:15,0.6,16,0.6,16,1.1,15
2015/5/31 1:16,0.6,16,0.6,16,1.3,15
2015/5/31 1:17,0.6,16,0.6,16,1.5,15
2015/5/31 1:18,0.7,16,0.7,16,1.4,15
2015/5/31 1:19,0.8,15,0.8,16,1.5,16
2015/5/31 1:20,0.8,15,0.8,16,0.9,14
2015/5/31 1:21,0.8,15,0.8,16,0.8,16
2015/5/31 1:22,0.8,15,0.8,16,0.8,15
2015/5/31 1:23,0.7,15,0.8,16,0.5,14
2015/5/31 1:24,0.8,15,0.8,16,0.8,12
2015/5/31 1:25,0.7,14,0.7,16,0.8,12
2015/5/31 1:26,0.7,14,0.7,16,0.8,11
2015/5/31 1:27,0.6,13,0.7,16,0.6,11
2015/5/31 1:28,0.6,13,0.6,16,0.5,11
2015/5/31 1:29,0.5,13,0.6,15,0.8,12
2015/5/31 1:30,0.5,12,0.5,15,0.9,11
2015/5/31 1:31,0.5,12,0.5,15,0.8,11
2015/5/31 1:32,0.5,12,0.5,15,0.4,12
2015/5/31 1:33,0.4,12,0.5,15,0.3,10
2015/5/31 1:34,0.4,12,0.4,15,0.6,16
2015/5/31 1:35,0.4,12,0.4,14,1,15
2015/5/31 1:36,0.4,13,0.4,14,0.6,15
2015/5/31 1:37,0.4,13,0.4,13,0.9,15
2015/5/31 1:38,0.4,13,0.4,13,0.8,15
2015/5/31 1:39,0.3,14,0.4,12,0.5,13
2015/5/31 1:40,0.3,14,0.3,12,0.5,12
2015/5/31 1:41,0.3,14,0.3,12,0.6,10
2015/5/31 1:42,0.3,13,0.3,12,0.6,10
2015/5/31 1:43,0.4,13,0.4,12,1.3,11
2015/5/31 1:44,0.5,13,0.5,13,1.4,12
2015/5/31 1:45,0.5,12,0.5,13,1.3,12
2015/5/31 1:46,0.6,12,0.6,12,1.1,12
2015/5/31 1:47,0.6,12,0.6,12,0.8,11
2015/5/31 1:48,0.7,11,0.7,11,1.1,11
2015/5/31 1:49,0.8,11,0.8,11,1.3,10
2015/5/31 1:50,0.8,11,0.8,11,1.3,11
2015/5/31 1:51,0.8,11,0.8,11,1.1,11
2015/5/31 1:52,0.9,12,0.9,11,1,12
2015/5/31 1:53,0.8,12,0.9,11,0.6,13
2015/5/31 1:54,0.8,12,0.8,11,0.8,13
2015/5/31 1:55,0.7,12,0.7,11,0.5,12
2015/5/31 1:56,0.6,12,0.7,11,0.5,15
2015/5/31 1:57,0.6,12,0.6,11,0.4,13
2015/5/31 1:58,0.5,13,0.6,11,0.5,15
2015/5/31 1:59,0.4,13,0.5,11,0.4,14
2015/5/31 2:00,0.4,13,0.4,11,0.3,15
2015/5/31 2:01,0.3,14,0.4,11,0.8,15
2015/5/31 2:02,0.3,14,0.3,12,1,16
2015/5/31 2:03,0.4,14,0.4,12,1.3,16
2015/5/31 2:04,0.4,15,0.4,12,1.3,14
2015/5/31 2:05,0.4,15,0.4,12,0.8,16
2015/5/31 2:06,0.4,15,0.4,12,1,16
2015/5/31 2:07,0.4,15,0.4,12,0.3,16
2015/5/31 2:08,0.4,16,0.4,13,0.3,4
2015/5/31 2:09,0.4,16,0.4,13,0.1,4
2015/5/31 2:10,0.4,1,0.4,13,0.3,4
2015/5/31 2:11,0.3,2,0.4,14,0.4,4
2015/5/31 2:12,0.3,2,0.3,14,0.4,4
2015/5/31 2:13,0.3,3,0.3,14,0.9,9
2015/5/31 2:14,0.2,4,0.3,15,1,9
2015/5/31 2:15,0.3,5,0.3,15,1.3,8
2015/5/31 2:16,0.3,5,0.3,15,1.4,8
2015/5/31 2:17,0.5,6,0.5,6,1.4,8
2015/5/31 2:18,0.6,7,0.6,7,1.6,8
2015/5/31 2:19,0.7,7,0.7,7,1.5,8
2015/5/31 2:20,0.7,8,0.7,7,1.3,8
2015/5/31 2:21,0.8,8,0.8,8,1.8,9
2015/5/31 2:22,0.9,9,0.9,8,1.6,10
2015/5/31 2:23,0.9,9,0.9,8,1.5,10
2015/5/31 2:24,0.9,9,0.9,8,0.9,9
2015/5/31 2:25,0.9,9,0.9,8,0.9,9
2015/5/31 2:26,0.8,9,0.9,8,1.3,8
2015/5/31 2:27,0.8,9,0.8,8,1.1,8
2015/5/31 2:28,0.7,9,0.8,8,0.5,9
2015/5/31 2:29,0.6,9,0.7,8,0.5,11
2015/5/31 2:30,0.5,9,0.6,8,0.1,9
2015/5/31 2:31,0.4,9,0.5,8,0,9
2015/5/31 2:32,0.3,9,0.4,8,0,9
2015/5/31 2:33,0.2,9,0.3,9,0.1,9
2015/5/31 2:34,0.2,9,0.2,9,0.1,9
2015/5/31 2:35,0.2,9,0.2,9,0.1,8
2015/5/31 2:36,0.1,9,0.2,9,0.1,8
2015/5/31 2:37,0,9,0.1,9,0.1,8
2015/5/31 2:38,0,9,0,9,0,8
2015/5/31 2:39,0,9,0,9,0.3,8
2015/5/31 2:40,0,9,0,9,0.5,9
2015/5/31 2:41,0,9,0,9,0.5,16
2015/5/31 2:42,0.1,9,0.1,9,0.8,6
2015/5/31 2:43,0.1,8,0.1,9,0.5,6
2015/5/31 2:44,0.1,8,0.1,9,0.1,6
2015/5/31 2:45,0.1,8,0.1,9,0.1,6
2015/5/31 2:46,0.1,7,0.1,9,0.4,6
2015/5/31 2:47,0.1,7,0.1,9,1.1,7
2015/5/31 2:48,0.2,7,0.2,7,1.5,7
2015/5/31 2:49,0.3,6,0.3,6,0.9,6
2015/5/31 2:50,0.3,6,0.3,6,1.1,7
2015/5/31 2:51,0.5,6,0.5,6,2.2,6
2015/5/31 2:52,0.7,6,0.7,6,2.5,6
2015/5/31 2:53,0.8,6,0.8,6,2.5,6
2015/5/31 2:54,0.9,6,0.9,6,1.3,7
2015/5/31 2:55,1,6,1,6,1.9,7
2015/5/31 2:56,1.1,6,1.1,6,1.6,7
2015/5/31 2:57,1.1,6,1.1,6,1.3,7
2015/5/31 2:58,1.1,6,1.1,6,1.9,7
2015/5/31 2:59,1.2,7,1.2,7,2,8
2015/5/31 3:00,1.2,7,1.2,7,1.4,8
2015/5/31 3:01,1.1,7,1.2,7,0.6,8
2015/5/31 3:02,1,7,1.1,7,1.8,7
2015/5/31 3:03,0.9,7,1,7,1.9,6
2015/5/31 3:04,1,7,1,7,1.4,8
2015/5/31 3:05,1,7,1,7,1.6,6
2015/5/31 3:06,1,7,1,7,2.1,7
2015/5/31 3:07,1.1,7,1.1,7,2.6,7
2015/5/31 3:08,1.1,7,1.1,7,1.4,7
2015/5/31 3:09,1,7,1.1,7,1.5,7
2015/5/31 3:10,1,7,1,7,1.3,7
2015/5/31 3:11,1.1,7,1.1,7,1.9,6
2015/5/31 3:12,1.1,7,1.1,7,1.5,7
2015/5/31 3:13,1.1,7,1.1,7,2.2,6
2015/5/31 3:14,1.1,7,1.1,7,1.1,7
2015/5/31 3:15,0.9,6,1,7,0.4,2
2015/5/31 3:16,0.9,6,0.9,7,0.6,2
2015/5/31 3:17,0.7,5,0.8,7,0.3,2
2015/5/31 3:18,0.7,5,0.7,7,0.3,2
2015/5/31 3:19,0.6,4,0.6,7,0.3,2
2015/5/31 3:20,0.5,4,0.6,7,0.1,2
2015/5/31 3:21,0.5,4,0.5,7,1.4,6
2015/5/31 3:22,0.4,3,0.5,7,0.6,7
2015/5/31 3:23,0.3,3,0.4,7,1.5,9
2015/5/31 3:24,0.4,4,0.4,7,2.1,9
2015/5/31 3:25,0.6,5,0.6,6,2.7,8
2015/5/31 3:26,0.7,6,0.7,6,2.2,8
2015/5/31 3:27,0.9,7,0.9,7,1.9,8
2015/5/31 3:28,1,8,1,8,1.6,9
2015/5/31 3:29,1.1,9,1.1,9,1.9,8
2015/5/31 3:30,1.1,9,1.1,9,1.4,9
2015/5/31 3:31,1.1,9,1.1,9,1.1,9
2015/5/31 3:32,1.1,9,1.1,9,1.6,9
2015/5/31 3:33,1.2,9,1.2,9,1.4,9
2015/5/31 3:34,1.1,9,1.2,9,1.1,8
2015/5/31 3:35,0.9,9,1.1,9,0.5,8
2015/5/31 3:36,0.8,9,0.9,9,0.9,8
2015/5/31 3:37,0.7,8,0.7,9,0.8,8
2015/5/31 3:38,0.7,8,0.7,9,2,8
2015/5/31 3:39,0.8,8,0.8,9,2.7,9
2015/5/31 3:40,0.9,8,0.9,9,3.1,8
2015/5/31 3:41,1.1,8,1.1,9,2.9,8
2015/5/31 3:42,1,8,1.1,9,2.1,7
2015/5/31 3:43,1,8,1,9,2.2,8
2015/5/31 3:44,1,8,1,9,1.9,8
2015/5/31 3:45,1.2,8,1.2,8,2.6,8
2015/5/31 3:46,1.4,8,1.4,8,3.2,7
2015/5/31 3:47,1.5,8,1.5,8,2.9,8
2015/5/31 3:48,1.5,8,1.5,8,1.8,9
2015/5/31 3:49,1.4,8,1.5,8,2.4,8
2015/5/31 3:50,1.4,8,1.4,8,3.7,9
2015/5/31 3:51,1.4,8,1.4,8,3.6,8
2015/5/31 3:52,1.6,8,1.6,8,3.2,8
2015/5/31 3:53,1.7,8,1.7,8,3,7
2015/5/31 3:54,1.8,8,1.8,8,3.3,8
2015/5/31 3:55,1.8,8,1.9,8,2.7,9
2015/5/31 3:56,1.8,8,1.8,8,3.5,8
2015/5/31 3:57,1.8,8,1.8,8,3.5,7
2015/5/31 3:58,1.9,8,1.9,8,3.5,8
2015/5/31 3:59,2,8,2,8,2.6,8
2015/5/31 4:00,2,8,2,8,2.4,9
2015/5/31 4:01,2.1,8,2.1,8,4.5,8
2015/5/31 4:02,2.2,8,2.2,8,4.7,8
2015/5/31 4:03,2.3,8,2.3,8,4.4,8
2015/5/31 4:04,2.4,8,2.4,8,4.5,9
2015/5/31 4:05,2.5,8,2.5,8,4.1,8
2015/5/31 4:06,2.5,8,2.5,8,3.5,10
2015/5/31 4:07,2.6,8,2.6,8,3.8,9
2015/5/31 4:08,2.6,9,2.6,8,3.8,9
2015/5/31 4:09,2.7,9,2.7,9,4.5,9
2015/5/31 4:10,2.9,9,2.9,9,4.4,9
2015/5/31 4:11,2.9,9,3,9,4.8,9
2015/5/31 4:12,2.8,9,2.9,9,3.8,9
2015/5/31 4:13,2.7,9,2.8,9,3.7,9
2015/5/31 4:14,2.6,9,2.7,9,4.1,9
2015/5/31 4:15,2.4,9,2.6,9,3,8
2015/5/31 4:16,2.4,9,2.4,9,3.5,10
2015/5/31 4:17,2.3,9,2.4,9,3.8,10
2015/5/31 4:18,2.3,9,2.4,9,3.6,9
2015/5/31 4:19,2.2,9,2.3,9,3.1,9
2015/5/31 4:20,2.1,9,2.2,9,3.2,9
2015/5/31 4:21,2.1,9,2.1,9,3.2,10
2015/5/31 4:22,2,9,2,9,3.2,10
2015/5/31 4:23,2,9,2,9,3.3,9
2015/5/31 4:24,1.9,9,2,9,2.9,10
2015/5/31 4:25,1.8,10,1.9,9,1.8,10
2015/5/31 4:26,1.7,10,1.8,9,1.8,9
2015/5/31 4:27,1.7,10,1.7,9,2.2,9
2015/5/31 4:28,1.6,10,1.7,9,2.9,8
2015/5/31 4:29,1.6,10,1.6,9,4.9,9
2015/5/31 4:30,1.6,10,1.6,9,3.9,1
2015/5/31 4:31,1.6,9,1.6,9,3.5,3
2015/5/31 4:32,1.6,11,1.6,9,5.8,15
2015/5/31 4:33,1.6,12,1.6,9,3.5,9
2015/5/31 4:34,1.6,5,1.6,9,2.9,5
2015/5/31 4:35,1.6,4,1.6,10,2.5,9
2015/5/31 4:36,1.7,3,1.7,10,3.5,11
2015/5/31 4:37,1.8,5,1.8,3,3.1,10
2015/5/31 4:38,1.9,11,1.9,9,4.8,9
2015/5/31 4:39,1.9,15,1.9,9,4.2,2
2015/5/31 4:40,1.9,12,1.9,9,3.1,4
2015/5/31 4:41,1.9,12,1.9,9,5,3
2015/5/31 4:42,2,4,2,9,4.3,4
2015/5/31 4:43,2.1,3,2.1,3,4.3,2
2015/5/31 4:44,2.2,3,2.2,3,4.7,3
2015/5/31 4:45,2.5,3,2.5,3,5.1,4
2015/5/31 4:46,2.6,3,2.6,3,5,5
2015/5/31 4:47,2.8,3,2.8,3,5.1,5
2015/5/31 4:48,2.8,4,2.8,3,6.2,5
2015/5/31 4:49,2.8,3,2.8,3,4.9,2
2015/5/31 4:50,3,4,3,4,5.1,3
2015/5/31 4:51,3.1,4,3.2,4,5,4
2015/5/31 4:52,3,4,3.1,4,2.6,4
2015/5/31 4:53,3.2,4,3.2,4,5.6,5
2015/5/31 4:54,3,4,3.2,4,3.5,4
2015/5/31 4:55,2.9,4,3,4,5,3
2015/5/31 4:56,2.7,4,2.9,4,3,5
2015/5/31 4:57,2.9,4,2.9,4,6.2,4
2015/5/31 4:58,3,4,3,4,5.4,3
2015/5/31 4:59,3.1,4,3.1,4,6.3,4
2015/5/31 5:00,3.2,4,3.2,4,6.9,3
2015/5/31 5:01,3.2,4,3.3,4,6.1,4
2015/5/31 5:02,3.3,4,3.3,4,3.9,5
2015/5/31 5:03,3.3,4,3.3,4,4.8,3
2015/5/31 5:04,3.4,4,3.4,4,3.6,6
2015/5/31 5:05,3.3,4,3.3,4,3.8,6
2015/5/31 5:06,3.4,4,3.4,4,3.7,5
2015/5/31 5:07,3.2,4,3.4,4,2.7,6
2015/5/31 5:08,3,5,3.1,4,2.6,6
2015/5/31 5:09,2.7,5,2.9,4,3,6
2015/5/31 5:10,2.4,5,2.7,4,2.5,3
2015/5/31 5:11,2.1,5,2.4,4,2.7,3
2015/5/31 5:12,2.1,5,2.1,4,4.1,4
2015/5/31 5:13,2,5,2.1,4,3.2,6
2015/5/31 5:14,1.9,5,2,4,3.7,5
2015/5/31 5:15,1.9,5,1.9,4,4.2,2
2015/5/31 5:16,2,4,2,4,6.3,3
2015/5/31 5:17,1.9,4,1.9,4,3.1,3
2015/5/31 5:18,1.9,3,1.9,5,3.3,3
2015/5/31 5:19,2,3,2,5,3,2
2015/5/31 5:20,2.1,3,2.1,5,3.5,4
2015/5/31 5:21,2.1,3,2.1,5,3,4
2015/5/31 5:22,2,3,2.1,5,2.6,3
2015/5/31 5:23,1.9,3,1.9,3,1.8,16
2015/5/31 5:24,1.8,2,1.9,3,2,16
2015/5/31 5:25,1.6,2,1.8,3,2.2,1
2015/5/31 5:26,1.5,2,1.6,3,2.4,16
2015/5/31 5:27,1.5,2,1.5,3,2.7,16
2015/5/31 5:28,1.6,1,1.6,3,4.3,16
2015/5/31 5:29,1.5,1,1.6,3,3.2,15
2015/5/31 5:30,1.5,1,1.5,3,2.6,16
2015/5/31 5:31,1.5,16,1.5,3,3,16
2015/5/31 5:32,1.5,16,1.5,3,1.8,2
2015/5/31 5:33,1.5,16,1.5,3,2.5,1
2015/5/31 5:34,1.6,16,1.6,2,2.7,2
2015/5/31 5:35,1.8,1,1.8,1,5.1,3
2015/5/31 5:36,2,1,2.1,1,6.1,3
2015/5/31 5:37,2.1,1,2.1,1,3.5,4
2015/5/31 5:38,2,1,2.1,1,3.2,2
2015/5/31 5:39,2,2,2,1,2.9,3
2015/5/31 5:40,2.2,2,2.2,2,5.7,2
2015/5/31 5:41,2.3,2,2.3,2,4.9,3
2015/5/31 5:42,2.6,2,2.6,2,5,2
2015/5/31 5:43,2.8,2,2.8,2,5.1,2
2015/5/31 5:44,3,2,3,2,6.2,2
2015/5/31 5:45,2.9,2,3,2,5.1,3
2015/5/31 5:46,2.6,2,2.9,2,2.9,3
2015/5/31 5:47,2.6,3,2.6,2,3,5
2015/5/31 5:48,2.6,3,2.6,2,3.3,2
2015/5/31 5:49,2.6,3,2.6,2,3.6,3
2015/5/31 5:50,2.4,3,2.6,2,2.7,4
2015/5/31 5:51,2.3,3,2.4,2,3.8,1
2015/5/31 5:52,2.1,3,2.3,2,2.7,3
2015/5/31 5:53,2,3,2.1,2,4.4,4
2015/5/31 5:54,1.8,3,2,2,3.5,3
2015/5/31 5:55,1.8,3,1.8,2,2.7,4
2015/5/31 5:56,1.8,4,1.8,2,1.5,6
2015/5/31 5:57,1.9,4,1.9,3,4.8,1
2015/5/31 5:58,1.9,3,1.9,3,4.3,2
2015/5/31 5:59,2,3,2,3,3.9,4
2015/5/31 6:00,2.1,3,2.1,3,3.8,2
2015/5/31 6:01,2.2,3,2.2,3,4.5,2
2015/5/31 6:02,2.3,3,2.3,3,4.2,4
2015/5/31 6:03,2.3,4,2.4,3,4.1,5
2015/5/31 6:04,2.3,4,2.3,3,3,5
2015/5/31 6:05,2.3,4,2.3,3,4.1,5
2015/5/31 6:06,2.4,4,2.4,3,2.4,5
2015/5/31 6:07,2.2,4,2.4,3,1,9
2015/5/31 6:08,2,4,2.1,3,1.4,16
2015/5/31 6:09,1.9,4,2,3,1.4,7
2015/5/31 6:10,1.7,5,1.8,3,2.6,4
2015/5/31 6:11,1.5,5,1.7,3,2.9,4
2015/5/31 6:12,1.3,5,1.5,3,1,6
2015/5/31 6:13,1.1,4,1.3,4,1.5,1
2015/5/31 6:14,1.1,3,1.1,4,2.5,1
2015/5/31 6:15,0.9,3,1.1,4,3.3,2
2015/5/31 6:16,0.9,2,0.9,4,2.7,16
2015/5/31 6:17,1.1,2,1.1,4,3.2,2
2015/5/31 6:18,1.1,2,1.1,4,3,2
2015/5/31 6:19,1.2,2,1.2,4,3.8,16
2015/5/31 6:20,1.3,2,1.3,5,3.1,3
2015/5/31 6:21,1.7,2,1.7,2,5.6,3
2015/5/31 6:22,1.9,2,1.9,2,4.9,3
2015/5/31 6:23,1.9,2,1.9,2,2.2,3
2015/5/31 6:24,2,2,2,2,3.9,2
2015/5/31 6:25,2.1,2,2.1,2,4.2,4
2015/5/31 6:26,2.2,2,2.2,2,3.5,1
2015/5/31 6:27,2.4,2,2.4,2,5.2,3
2015/5/31 6:28,2.6,2,2.6,2,5.2,3
2015/5/31 6:29,2.7,2,2.7,2,4.5,3
2015/5/31 6:30,2.8,2,2.8,2,6.4,2
2015/5/31 6:31,2.8,2,2.8,2,5.4,2
2015/5/31 6:32,2.8,2,2.8,2,4.9,3
2015/5/31 6:33,3.1,2,3.1,2,6.8,3
2015/5/31 6:34,3.4,2,3.4,2,6.8,3
2015/5/31 6:35,3.4,2,3.4,2,5.4,2
2015/5/31 6:36,3.4,2,3.4,2,3.9,3
2015/5/31 6:37,3.4,2,3.4,2,5.8,2
2015/5/31 6:38,3.3,2,3.4,2,5,2
2015/5/31 6:39,3.3,2,3.3,2,6,3
2015/5/31 6:40,3.2,2,3.3,2,4.3,3
2015/5/31 6:41,3.1,2,3.2,2,3.5,1
2015/5/31 6:42,2.9,2,3.1,2,3.1,16
2015/5/31 6:43,2.8,2,2.9,2,4.3,16
2015/5/31 6:44,2.5,1,2.8,2,3,15
2015/5/31 6:45,2.4,1,2.5,2,2.5,16
2015/5/31 6:46,2.3,16,2.4,2,2.2,14
2015/5/31 6:47,2.1,16,2.3,2,2.2,16
2015/5/31 6:48,1.9,16,2.1,2,1.4,1
2015/5/31 6:49,1.7,16,1.9,2,1.8,14
2015/5/31 6:50,1.7,16,1.7,2,4.1,3
2015/5/31 6:51,1.9,16,1.9,2,7,2
2015/5/31 6:52,2.2,16,2.2,2,7.1,3
2015/5/31 6:53,2.3,1,2.3,2,6.4,2
2015/5/31 6:54,2.4,1,2.4,1,4.9,1
2015/5/31 6:55,2.7,1,2.7,1,7.2,1
2015/5/31 6:56,3,2,3,2,5.7,16
2015/5/31 6:57,3.1,2,3.1,2,5.6,1
2015/5/31 6:58,3.3,2,3.3,2,5,1
2015/5/31 6:59,3.4,2,3.4,2,3.9,3
2015/5/31 7:00,3.4,2,3.4,2,4.4,3
2015/5/31 7:01,3.1,2,3.4,2,3.9,3
2015/5/31 7:02,3,2,3.1,2,4.2,2
2015/5/31 7:03,2.7,1,3,2,2.6,1
2015/5/31 7:04,2.5,1,2.7,2,2.4,16
2015/5/31 7:05,2.3,1,2.5,2,7.1,15
2015/5/31 7:06,2.3,1,2.3,2,6.2,2
2015/5/31 7:07,2.4,1,2.4,2,5.6,16
2015/5/31 7:08,2.5,1,2.6,2,6.3,1
2015/5/31 7:09,2.7,1,2.7,2,6.3,16
2015/5/31 7:10,2.9,1,2.9,2,5,15
2015/5/31 7:11,2.8,1,2.9,2,2.5,16
2015/5/31 7:12,2.7,16,2.8,2,3.7,16
2015/5/31 7:13,2.7,1,2.7,1,3.2,3
2015/5/31 7:14,2.8,1,2.8,1,2.7,1
2015/5/31 7:15,2.7,1,2.8,1,4.7,3
2015/5/31 7:16,2.7,1,2.8,1,4.2,4
2015/5/31 7:17,2.7,1,2.7,1,4.2,4
2015/5/31 7:18,2.4,1,2.6,1,3,2
2015/5/31 7:19,2.1,2,2.3,1,1.4,1
2015/5/31 7:20,1.8,2,2,1,2.6,2
2015/5/31 7:21,1.8,2,1.9,1,2.5,1
2015/5/31 7:22,1.7,3,1.8,1,2.2,7
2015/5/31 7:23,1.7,3,1.7,1,2.4,1
2015/5/31 7:24,1.8,3,1.8,1,4.2,3
2015/5/31 7:25,1.7,3,1.8,1,3.2,4
2015/5/31 7:26,1.6,3,1.7,1,3.3,5
2015/5/31 7:27,1.5,4,1.6,1,2.9,5
2015/5/31 7:28,1.5,4,1.5,1,3.5,4
2015/5/31 7:29,1.7,4,1.7,2,4.3,3
2015/5/31 7:30,1.7,4,1.8,2,1.9,4
2015/5/31 7:31,1.7,4,1.7,2,2,6
2015/5/31 7:32,1.8,4,1.8,3,2.7,3
2015/5/31 7:33,1.9,4,1.9,4,2.5,3
2015/5/31 7:34,1.7,5,1.8,4,2.4,6
2015/5/31 7:35,1.7,5,1.7,4,2.2,6
2015/5/31 7:36,1.7,5,1.7,4,2.6,7
2015/5/31 7:37,1.7,5,1.7,4,1.6,6
2015/5/31 7:38,1.5,5,1.7,4,1.5,5
2015/5/31 7:39,1.2,5,1.5,4,0.6,2
2015/5/31 7:40,1.3,5,1.3,4,2.6,2
2015/5/31 7:41,1.3,4,1.3,4,3.9,16
2015/5/31 7:42,1.4,4,1.4,4,4.7,1
2015/5/31 7:43,1.6,4,1.6,4,6.1,16
2015/5/31 7:44,1.6,3,1.6,5,3.7,16
2015/5/31 7:45,1.8,3,1.8,3,6.2,1
2015/5/31 7:46,2,2,2,2,5.2,16
2015/5/31 7:47,2.2,1,2.2,1,7.4,16
2015/5/31 7:48,2.7,1,2.7,1,7.7,16
2015/5/31 7:49,2.9,1,2.9,1,5.7,15
2015/5/31 7:50,3.3,1,3.3,1,8.6,15
2015/5/31 7:51,3.4,1,3.4,1,7.8,1
2015/5/31 7:52,3.6,16,3.6,16,9.2,1
2015/5/31 7:53,3.6,16,3.7,16,6.7,14
2015/5/31 7:54,4.1,16,4.1,16,10.9,16
2015/5/31 7:55,4.3,16,4.3,16,13.3,16
2015/5/31 7:56,4.5,16,4.5,16,9.7,1
2015/5/31 7:57,4.5,16,4.6,16,7,1
2015/5/31 7:58,4.4,16,4.6,16,7.8,15
2015/5/31 7:59,4.6,16,4.6,16,7.6,16
2015/5/31 8:00,4.6,16,4.6,16,12.6,15
2015/5/31 8:01,5,16,5.1,16,11.9,16
2015/5/31 8:02,4.9,16,5.1,16,7.7,16
2015/5/31 8:03,4.7,16,5,16,4.2,1
2015/5/31 8:04,4.3,16,4.6,16,2.7,16
2015/5/31 8:05,4.1,16,4.2,16,7.2,1
2015/5/31 8:06,3.9,16,4.1,16,6.9,1
2015/5/31 8:07,3.9,16,3.9,16,7.2,16
2015/5/31 8:08,3.8,16,3.9,16,7.7,1
2015/5/31 8:09,3.9,16,3.9,16,8.1,16
2015/5/31 8:10,3.8,16,4,16,6.7,1
2015/5/31 8:11,3.5,16,3.7,16,5.7,16
2015/5/31 8:12,3.4,16,3.5,16,5.8,16
2015/5/31 8:13,3.8,16,3.8,16,6.1,16
2015/5/31 8:14,4.2,16,4.2,16,9.2,15
2015/5/31 8:15,4.1,16,4.3,16,6.5,15
2015/5/31 8:16,4.1,16,4.1,16,5.5,2
2015/5/31 8:17,3.8,16,4,16,2.5,1
2015/5/31 8:18,3.7,16,3.8,16,3.8,2
2015/5/31 8:19,3.4,1,3.7,16,3.9,1
2015/5/31 8:20,3.5,1,3.5,16,7.2,2
2015/5/31 8:21,3.4,1,3.5,16,6.1,3
2015/5/31 8:22,3.4,1,3.4,16,4.8,2
2015/5/31 8:23,3.1,1,3.4,16,4.4,2
2015/5/31 8:24,2.8,2,3.1,16,6.5,1
2015/5/31 8:25,2.7,2,2.7,16,5.2,16
2015/5/31 8:26,2.8,2,2.8,16,7,3
2015/5/31 8:27,3.1,1,3.1,16,7.7,2
2015/5/31 8:28,3.4,2,3.4,16,8.4,2
2015/5/31 8:29,3.7,2,3.7,2,7.8,1
2015/5/31 8:30,3.7,1,3.7,2,6.1,2
2015/5/31 8:31,3.7,1,3.7,2,6.2,1
2015/5/31 8:32,3.8,1,3.9,1,7.4,1
2015/5/31 8:33,3.9,1,3.9,1,4.9,2
2015/5/31 8:34,4,1,4,1,4.8,1
2015/5/31 8:35,4,1,4,1,4.5,2
2015/5/31 8:36,3.9,1,4,1,4.3,15
2015/5/31 8:37,3.9,1,3.9,1,6.3,16
2015/5/31 8:38,3.7,1,3.9,1,7,16
2015/5/31 8:39,3.4,1,3.7,1,4.4,16
2015/5/31 8:40,3.1,1,3.3,1,3.1,1
2015/5/31 8:41,2.8,1,3.1,1,1.9,15
2015/5/31 8:42,2.6,1,2.8,1,4.3,3
2015/5/31 8:43,2.7,1,2.7,1,7.6,3
2015/5/31 8:44,2.7,1,2.8,1,7.1,1
2015/5/31 8:45,2.8,1,2.8,1,6,3
2015/5/31 8:46,2.8,1,2.8,1,5.6,2
2015/5/31 8:47,2.8,1,2.8,1,5.7,1
2015/5/31 8:48,2.6,2,2.7,1,4.4,3
2015/5/31 8:49,2.9,2,2.9,1,6.1,2
2015/5/31 8:50,3,2,3,1,4.5,15
2015/5/31 8:51,3.1,2,3.1,2,4.2,1
2015/5/31 8:52,3,2,3,2,3.7,1
2015/5/31 8:53,2.8,2,3,2,3.7,1
2015/5/31 8:54,2.8,2,2.8,2,4.7,1
2015/5/31 8:55,2.9,1,2.9,2,7,1
2015/5/31 8:56,3.1,1,3.1,2,8.6,16
2015/5/31 8:57,3.3,1,3.3,1,6.7,16
2015/5/31 8:58,3.3,1,3.3,1,5.5,16
2015/5/31 8:59,3.2,1,3.3,1,4.5,1
2015/5/31 9:00,3.2,16,3.3,1,5.5,15
2015/5/31 9:01,3.4,16,3.4,16,4.7,15
2015/5/31 9:02,3.4,16,3.5,16,3.7,16
2015/5/31 9:03,3.4,16,3.5,16,3.6,1
2015/5/31 9:04,3.5,16,3.5,16,6.3,3
2015/5/31 9:05,3.4,16,3.5,16,4.2,3
2015/5/31 9:06,3,16,3.3,16,4.2,2
2015/5/31 9:07,2.7,1,3,16,4.9,1
2015/5/31 9:08,2.8,1,2.8,16,5.6,2
2015/5/31 9:09,2.8,1,2.9,16,6.7,2
2015/5/31 9:10,2.9,1,2.9,16,5,3
2015/5/31 9:11,2.8,1,2.9,16,3.8,2
2015/5/31 9:12,2.7,2,2.8,16,3.5,1
2015/5/31 9:13,2.9,2,2.9,16,6.3,2
2015/5/31 9:14,2.8,2,2.9,16,6.1,2
2015/5/31 9:15,3,2,3,16,6.3,2
2015/5/31 9:16,3.2,2,3.2,2,5.6,1
2015/5/31 9:17,3.2,2,3.2,2,5.2,2
2015/5/31 9:18,3,2,3.2,2,3.9,1
2015/5/31 9:19,3,1,3.1,2,6.3,1
2015/5/31 9:20,2.8,1,3,2,2.5,7
2015/5/31 9:21,2.7,1,2.8,2,3,3
2015/5/31 9:22,2.8,1,2.8,2,4.1,2
2015/5/31 9:23,2.8,1,2.8,2,6.8,3
2015/5/31 9:24,2.8,1,2.8,2,6,2
2015/5/31 9:25,2.7,1,2.8,2,4.7,1
2015/5/31 9:26,2.6,1,2.7,2,6.7,2
2015/5/31 9:27,2.6,1,2.6,2,4.9,2
2015/5/31 9:28,3.1,2,3.1,1,7.5,2
2015/5/31 9:29,3.2,2,3.2,2,8.6,3
2015/5/31 9:30,3.5,2,3.5,2,6.9,2
2015/5/31 9:31,3.7,2,3.7,2,5.2,15
2015/5/31 9:32,3.9,2,3.9,2,6.2,16
2015/5/31 9:33,3.9,1,4,2,6.4,15
2015/5/31 9:34,3.9,1,3.9,2,6.2,15
2015/5/31 9:35,3.8,1,3.8,2,4.7,2
2015/5/31 9:36,3.7,1,3.8,2,4.4,1
2015/5/31 9:37,3.6,1,3.7,2,3.7,16
2015/5/31 9:38,3.3,1,3.5,2,5.8,15
2015/5/31 9:39,2.9,16,3.2,2,4.5,16
2015/5/31 9:40,2.8,16,2.9,2,4.1,2
2015/5/31 9:41,2.7,16,2.8,2,4.9,16
2015/5/31 9:42,2.6,16,2.7,2,5.6,15
2015/5/31 9:43,2.5,16,2.6,1,3.3,16
2015/5/31 9:44,2.2,16,2.4,1,3.1,16
2015/5/31 9:45,2.2,16,2.2,1,4.2,1
2015/5/31 9:46,2.2,16,2.2,1,3.2,16
2015/5/31 9:47,2.2,16,2.2,1,3.3,1
2015/5/31 9:48,2.2,16,2.2,1,5.4,1
2015/5/31 9:49,2.4,1,2.4,16,7.9,16
2015/5/31 9:50,2.4,16,2.4,16,3.5,15
2015/5/31 9:51,2.3,16,2.4,16,3.5,16
2015/5/31 9:52,2.2,16,2.3,16,4.3,15
2015/5/31 9:53,2.6,16,2.6,16,13.3,15
2015/5/31 9:54,3,16,3,16,8.3,1
2015/5/31 9:55,3.1,16,3.1,16,5.6,16
2015/5/31 9:56,3.2,16,3.2,16,6.3,15
2015/5/31 9:57,3.4,16,3.4,16,8.5,15
2015/5/31 9:58,3.5,16,3.5,16,6.4,15
2015/5/31 9:59,3.9,16,3.9,16,10.3,15
2015/5/31 10:00,4.3,16,4.3,16,11.1,16
2015/5/31 10:01,4.6,16,4.6,16,8.3,15
2015/5/31 10:02,4.7,16,4.7,16,5.6,16
2015/5/31 10:03,4.2,16,4.6,16,3.9,15
2015/5/31 10:04,4.1,15,4.3,16,7.6,15
2015/5/31 10:05,4.3,15,4.4,16,8.2,16
2015/5/31 10:06,4.3,16,4.4,16,7,2
2015/5/31 10:07,4.4,16,4.4,16,6.9,1
2015/5/31 10:08,4.5,16,4.5,16,11.3,4
2015/5/31 10:09,4.2,16,4.5,16,9.7,1
2015/5/31 10:10,4.1,16,4.2,16,9.2,15
2015/5/31 10:11,4.4,16,4.4,16,11.6,15
2015/5/31 10:12,4.3,16,4.4,16,5,15
2015/5/31 10:13,4.3,16,4.4,16,5.2,14
2015/5/31 10:14,4.1,16,4.3,16,4.5,16
2015/5/31 10:15,3.9,16,4.1,16,3.8,1
2015/5/31 10:16,3.8,16,3.8,16,6,3
2015/5/31 10:17,3.9,1,3.9,16,8.5,3
2015/5/31 10:18,4,1,4,16,7.8,4
2015/5/31 10:19,3.9,1,4,16,6.3,2
2015/5/31 10:20,3.7,1,4,16,4.8,16
2015/5/31 10:21,3.4,1,3.7,16,5.5,1
2015/5/31 10:22,3.6,2,3.6,16,6.4,2
2015/5/31 10:23,3.5,2,3.6,16,3.9,13
2015/5/31 10:24,3.6,2,3.6,16,5.6,1
2015/5/31 10:25,3.5,2,3.6,1,2.2,15
2015/5/31 10:26,3.3,1,3.5,1,2.6,10
2015/5/31 10:27,2.8,1,3.3,1,1.8,9
2015/5/31 10:28,2.3,1,2.7,1,0.8,8
2015/5/31 10:29,2,16,2.3,1,1.9,5
2015/5/31 10:30,1.8,16,2,1,3.1,3
2015/5/31 10:31,1.6,1,1.8,2,2,3
2015/5/31 10:32,1.3,1,1.6,2,3,3
2015/5/31 10:33,1.3,2,1.3,2,4.1,4
2015/5/31 10:34,1.2,3,1.4,2,4.8,6
2015/5/31 10:35,1.3,4,1.3,2,3.1,3
2015/5/31 10:36,1.4,3,1.4,1,4.5,2
2015/5/31 10:37,1.5,3,1.5,1,2.7,1
2015/5/31 10:38,1.6,3,1.6,16,1.6,2
2015/5/31 10:39,1.6,3,1.6,16,2.7,4
2015/5/31 10:40,1.6,3,1.6,16,4.7,4
2015/5/31 10:41,1.8,3,1.8,3,5.1,1
2015/5/31 10:42,1.7,3,1.8,3,2.1,16
2015/5/31 10:43,1.7,2,1.7,3,3.2,13
2015/5/31 10:44,1.7,2,1.7,3,3.1,12
2015/5/31 10:45,1.6,16,1.6,3,2.4,15
2015/5/31 10:46,1.5,16,1.6,3,3.5,15
2015/5/31 10:47,1.6,16,1.6,3,6.2,16
2015/5/31 10:48,1.8,16,1.8,3,6.5,1
2015/5/31 10:49,1.8,15,1.8,3,2.6,1
2015/5/31 10:50,1.9,16,1.9,16,4.3,16
2015/5/31 10:51,1.9,16,2,16,5.2,2
2015/5/31 10:52,2,16,2,16,3.6,6
2015/5/31 10:53,2.1,1,2.1,1,5.6,16
2015/5/31 10:54,2.5,1,2.5,1,8.5,1
2015/5/31 10:55,2.8,1,2.8,1,7.5,1
2015/5/31 10:56,3,2,3,2,5.6,4
2015/5/31 10:57,3,2,3.1,2,7.1,5
2015/5/31 10:58,2.9,2,3,2,3.1,1
2015/5/31 10:59,3.1,2,3.1,2,7.6,16
2015/5/31 11:00,3.5,2,3.5,2,10.3,15
2015/5/31 11:01,3.8,1,3.8,1,9.3,16
2015/5/31 11:02,4.1,1,4.1,1,7.6,15
2015/5/31 11:03,4.4,1,4.4,1,8.3,16
2015/5/31 11:04,4.4,1,4.4,1,10.7,15
2015/5/31 11:05,4.2,16,4.4,1,7.1,15
2015/5/31 11:06,4.4,16,4.4,1,9.1,1
2015/5/31 11:07,4.6,16,4.6,16,8.3,16
2015/5/31 11:08,5.1,16,5.1,16,10.3,1
2015/5/31 11:09,5.4,16,5.4,16,8.5,16
2015/5/31 11:10,5.3,16,5.4,16,8.7,15
2015/5/31 11:11,5.1,16,5.3,16,7.6,16
2015/5/31 11:12,5.1,16,5.1,16,6.1,15
2015/5/31 11:13,5,16,5.1,16,7.9,16
2015/5/31 11:14,5,16,5.1,16,9.2,15
2015/5/31 11:15,5,16,5,16,9.4,16
2015/5/31 11:16,4.6,16,5,16,2.6,3
2015/5/31 11:17,4.2,1,4.5,16,3.2,16
2015/5/31 11:18,3.7,1,4.2,16,1.5,16
2015/5/31 11:19,3.2,1,3.7,16,3.2,15
2015/5/31 11:20,3.2,1,3.2,16,8.3,15
2015/5/31 11:21,3.2,1,3.2,16,5.6,1
2015/5/31 11:22,3,1,3.2,16,4.7,1
2015/5/31 11:23,2.6,1,2.9,16,3.9,1
2015/5/31 11:24,2.3,1,2.6,16,5.7,15
2015/5/31 11:25,2.5,1,2.5,16,8.9,2
2015/5/31 11:26,2.7,1,2.7,16,6.3,3
2015/5/31 11:27,2.8,1,2.8,1,7,4
2015/5/31 11:28,2.9,1,2.9,1,5.4,2
2015/5/31 11:29,3,1,3,1,6.8,2
2015/5/31 11:30,2.9,1,3.1,1,7.6,15